Location: Champs
(48.8539°N, 2.6040°E)
Time: 04:31:03
(UTC+00:00)

ATLAS CENTAUR R/B - Pass Details

Date: 26 October 2021
Orbit: 452 x 689 km, 64.7° (Epoch: 28 November)

Event Time Altitude Azimuth Distance (km) Brightness Sun altitude
Exits shadow 03:58:27 17° 354° (N) 1,538 3.6 -25.0°
Drops below altitude 10° 04:00:26 10° 18° (NNE) 1,974 4.5 -24.6°
Sets 04:03:25 0° 37° (NE) 2,931 5.7 -24.2°
